Regional Weather Roundup
Issued by NWS

Home | Current Version | Previous Version | Text Only | Print | Product List | Glossary On
Versions: 1 2 3 4 5 6 7 8 9 10 11 12 13 14 15 16 17 18 19 20 21 22 23 24 25 26 27 28 29 30 31 32 33 34 35 36 37 38 39 40 41 42 43 44 45 46 47 48 49 50
350
ASUS42 KTBW 291916
RWRFL
FLORIDA REGIONAL WEATHER ROUNDUP
NATIONAL WEATHER SERVICE TAMPA BAY RUSKIN FL
300 PM EDT FRI JUL 29 2016

NOTE: "FAIR" INDICATES FEW OR NO CLOUDS BELOW 12,000 FEET WITH NO
SIGNIFICANT WEATHER AND/OR OBSTRUCTIONS TO VISIBILITY.

FLZ001>010-012>015-112-114-115-292000-
PANHANDLE FLORIDA

CITY           SKY/WX    TMP DP  RH WIND       PRES   REMARKS
PENSACOLA      MOSUNNY   88  76  67 S7        30.03F HX  99
PENSACOLA NAS  PTSUNNY   92  75  57 SW12      30.03F HX 103
MILTON NAS     CLOUDY    89  75  63 CALM      30.03  HX  99
CRESTVIEW      MOSUNNY   85  74  69 S5        30.06S
DUKE FIELD     TSTM      84  73  70 SW15      30.05R
VALPARAISO     PTSUNNY   91  75  60 VRB1      30.04S HX 101
MARY ESTHER    MOSUNNY   91  73  55 VRB7      30.03  HX 100
PANAMA CITY    CLOUDY    85  74  69 N12G23    30.03R
TYNDALL AFB    MOSUNNY   89  77  66 SW13      30.05S HX 102
APALACHICOLA   MOSUNNY   92  78  63 SW14      30.04F HX 107

STATION/POSITION SKY/WX   TEMP    WIND        PRES    WAVE   SWELL
                          AIR SEA DIR/SP/G            HT/PER HT/PER
                          (F)     (DEG/KT/KT) (MB)    (FT/S) (FT/S)
30.1N   87.6W              85 88  220/  8/  8 1017.4F   2/ 6   2/ 6
29.2N   88.2W              86 87  230/  6/ 10 1017.5R
28.8N   86.0W              86 88  220/  4/  8 1018.4R   1/ 5   2/ 5
PANAMA CITY BEAC           86 89  220/  8/ 10 1017.8F
TOWER C                    86     230/  5/  6 1018.2F
28.5N   84.5W              88 93   CALM  /  2 1017.9F   1/ 5

$$
FLZ011-016>038-118-127-128-134-139-239-292000-
NORTH FLORIDA

CITY           SKY/WX    TMP DP  RH WIND       PRES   REMARKS
MARIANNA       LGT RAIN  84  74  71 SW23G35   30.04R
TALLAHASSEE    PTSUNNY   96  67  38 N3        30.02F HX 100
PERRY          SUNNY     94  69  45 SW9       30.04S HX  99
LIVE OAK         N/A     99  70  39 SW9G20    30.04F HX 105
CROSS CITY       N/A     95  72  47 NW10      30.02F HX 103
LAKE CITY      FAIR      93  70  46 W10       30.03F HX  99
GAINESVILLE    MOSUNNY   96  72  45 W10       30.02F HX 104
WILLISTON        N/A     84  75  74 E6        30.04S
PALATKA        FAIR      97 N/A N/A S5        30.01F
MAYPORT NAS    MOSUNNY   95  74  50 SE13      30.01F HX 105
JACKSONVILLE   MOSUNNY   98  68  37 NW8       29.99F HX 103
JAX NAS        MOSUNNY   98  67  36 SE7       30.01F HX 102
JAX CECIL      MOSUNNY   97  70  41 W5        30.01F HX 103
FERNANDINA BEA FAIR      99  68  36 SW6       29.99F HX 104
ST AUGUSTINE   MOSUNNY   91  77  63 E12       30.02F HX 104
PALM COAST     SUNNY     95  73  49 E9        30.02F HX 105

STATION/POSITION SKY/WX   TEMP    WIND        PRES    WAVE   SWELL
                          AIR SEA DIR/SP/G            HT/PER HT/PER
                          (F)     (DEG/KT/KT) (MB)    (FT/S) (FT/S)
SHELL POINT                89     180/ 11/ 14 1016.1
KEATON BEACH               86     260/  9/  9 1017.0F
CEDAR KEY                  88     250/  6/  9 1017.6F
FERNANDINA                 96 88  240/  3/  8 1016.4F
30.7N   81.3W                 87                N/A     1/ 4
MAYPORT                    91 89  100/  3/  6 1017.2F
31.4N   80.9W              86 88  160/ 12/ 14 1015.6F   2/ 5   2/ 7
ST AUGUSTINE               85 86  110/ 11/ 12 1017.5F

$$
FLZ040-043>046-052-053-057-058-063-144-292000-
INTERIOR CENTRAL FLORIDA

CITY           SKY/WX    TMP DP  RH WIND       PRES   REMARKS
OCALA          TSTM      79  72  78 W16       30.07R
THE VILLAGES     N/A     81  77  89 S7        29.94F
LEESBURG       MOSUNNY   92  76  59 NW10      30.03F HX 104
SANFORD        CLOUDY    92  72  51 SW7       30.01F HX  99
ORLANDO EXEC   CLOUDY    91  75  59 W5        30.02F HX 101
ORLANDO INTL   PTSUNNY   91  72  53 N8        30.02F THUNDER HX  98
KISSIMMEE      CLOUDY    89  76  65 W12       30.04S HX 100
WINTER HAVEN   CLOUDY    83  72  69 CALM      30.05F
LAKELAND       MOSUNNY   79  75  89 NW5       30.06F
BARTOW         MOSUNNY   81  73  78 E5        30.05F
OKEECHOBEE     SUNNY     91  72  52 S6        30.03F HX  98

$$
FLZ041-047-054-059-064-141-147-292000-
EAST CENTRAL FLORIDA

CITY           SKY/WX    TMP DP  RH WIND       PRES   REMARKS
ORMOND BEACH   MOSUNNY   90  73  58 E7        30.03S HX  98
DAYTONA BEACH  MOSUNNY   94  73  50 E10       30.02F HX 103
NEW SMYRNA BEA MOSUNNY   88  73  62 E12       30.05S HX  96
JFK SPACE CTR  MOSUNNY   92  74  55 E12       30.02F HX 102
TITUSVILLE     MOSUNNY   93  70  46 E12       30.03F HX  99
CAPE CANAVERAL SUNNY     92  75  57 E10       30.02F HX 103
PATRICK AFB    SUNNY     91  79  68 E12       30.02F HX 107
MELBOURNE      MOSUNNY   93  74  53 E14       30.02F HX 103
VERO BEACH     SUNNY     95  72  47 E13       30.03F HX 103
FT PIERCE      SUNNY     93  70  46 E13       30.02F HX  99
STUART         MOSUNNY   93  77  59 E15       30.05F HX 107

STATION/POSITION SKY/WX   TEMP    WIND        PRES    WAVE   SWELL
                          AIR SEA DIR/SP/G            HT/PER HT/PER
                          (F)     (DEG/KT/KT) (MB)    (FT/S) (FT/S)
28.5N   80.2W              85 88  360/  2/  4 1017.9F
28.9N   78.5W              86 87  270/  8/ 10 1017.6F
TRIDENT PIER               90 86   90/  7/ 10 1017.6F
28.4N   80.5W                 85                N/A     1/ 8
27.5N   80.2W                 85                N/A     1/ 8

$$
FLZ050-056-061-142-242-148-248-149-249-151-251-155-255-
160-260-292000-
WEST CENTRAL FLORIDA

CITY           SKY/WX    TMP DP  RH WIND       PRES   REMARKS
CRYSTAL RIVER  FAIR      84  77  79 CALM      30.05F
INVERNESS      FAIR      82  77  83 CALM      30.04F
BROOKSVILLE    CLOUDY    82  77  84 CALM      30.06F
ZEPHYRHILLS    FAIR      75  68  78 SW5       30.06F
CLEARWATER AIR FAIR      88  73  62 NW3       30.04F HX  96
ST PETE CLEARW PTSUNNY   88  71  57 CALM      30.05F THUNDER
TAMPA INTL     CLOUDY    88  75  65 VRB3      30.05F HX  97
TAMPA EXEC     CLOUDY    82  75  78 CALM      30.05F
PLANT CITY     LGT RAIN  79  77  94 CALM      30.07F
MACDILL AFB    CLOUDY    91  79  66 VRB2      30.05F HX 107
PETER O KNIGHT CLOUDY    88  77  70 CALM      30.05F HX 100
ST PETERSBURG  CLOUDY    81  75  82 W9        30.04S THUNDER HAZE
SARASOTA       LGT RAIN  80  74  81 SE6       30.05S
VENICE         NOT AVBL

STATION/POSITION SKY/WX   TEMP    WIND        PRES    WAVE   SWELL
                          AIR SEA DIR/SP/G            HT/PER HT/PER
                          (F)     (DEG/KT/KT) (MB)    (FT/S) (FT/S)
27.3N   84.2W                 91                N/A     1/ 4
CLEARWATER BEACH           87 89  250/  3/  4 1018.0F
MIDDLE TAMPA BAY                  190/ 11/ 13 1018.3F
VENICE                     87 91  250/  6/  8 1017.2S

$$
FLZ066-069-070-075>078-162-262-165-265-292000-
SOUTHWEST FLORIDA AND KEYS

CITY           SKY/WX    TMP DP  RH WIND       PRES   REMARKS
PUNTA GORDA    CLOUDY    84  78  82 SE7       30.06S HX  95
FT MYERS       MOSUNNY   92  75  57 W14       30.03R HX 103
SOUTHWEST INTL MOSUNNY   93  73  52 SW13      30.03F THUNDER HX 102
NAPLES         MOSUNNY   89  74  60 SW10      30.04R HX  98
MARCO ISLAND   SUNNY     93  73  52 SW7       30.05R HX 102
MARATHON       SUNNY     90  79  70 VRB6      30.04F HX 106
KEY WEST NAS   MOSUNNY   89  78  70 E8        30.04F HX 103
KEY WEST INTL  SUNNY     88  79  74 SE9       30.04F HX 103

STATION/POSITION SKY/WX   TEMP    WIND        PRES    WAVE   SWELL
                          AIR SEA DIR/SP/G            HT/PER HT/PER
                          (F)     (DEG/KT/KT) (MB)    (FT/S) (FT/S)
NAPLES                        89              1017.4F
26.0N   85.6W              85 89   80/  4/  4 1018.2F   1/ 5   2/ 5
DRY TORTUGAS               85     140/  7/  8 1017.4F
SAND KEY                   85     140/  7/  8 1017.8F
LONG KEY                   86 88  150/  7/  8 1017.9F

$$
FLZ067-068-071>074-168-172>174-292000-
SOUTHEAST FLORIDA

CITY           SKY/WX    TMP DP  RH WIND       PRES   REMARKS
W PALM BEACH   PTSUNNY   92  73  53 E13       30.05S HX 100
BOCA RATON     MOSUNNY   91  77  62 SE9       30.05S HX 105
FT LAUDER-EXEC TSTM      81  72  74 S6        30.04F
FT LAUDERDALE  CLOUDY    86  71  60 N8        30.04F
POMPANO BEACH  MOSUNNY   88  66  48 CALM      30.05F
PEMBROKE PINES CLOUDY    90  73  57 NE10      30.05F HX  98
OPA LOCKA      MOSUNNY   92  74  55 S9        30.04F HX 101
MIAMI          CLOUDY    88  75  65 VRB6G18   30.05F HX  97
WEST KENDALL   CLOUDY    83  77  82 S12       30.05F
HOMESTEAD      TSTM      77  70  78 SW17G23   30.07S

STATION/POSITION SKY/WX   TEMP    WIND        PRES    WAVE   SWELL
                          AIR SEA DIR/SP/G            HT/PER HT/PER
                          (F)     (DEG/KT/KT) (MB)    (FT/S) (FT/S)
PORT EVERGLADES            88     140/  6/  8 1018.1R
VIRGINIA KEY               86 90  100/  8/  9 1018.4S
LAKE WORTH                        130/  8/  9   N/A
FOWEY ROCKS                85 85  140/  5/  6 1018.4F
SETTLEMENT POINT           86     340/  3/  4 1018.6F

$$





USA.gov is the U.S. government's official web portal to all federal, state and local government web resources and services.